Time,TemperatureF,DewpointF,PressureIn,WindDirection,WindDirectionDegrees,WindSpeedMPH,WindSpeedGustMPH,Humidity,HourlyPrecipIn,Conditions,Clouds,dailyrainin,SoftwareType,DateUTC
2013-02-17 00:14:00,49.8,37.3,29.90,West,270,8.3,-999.0,62,-99.99,,,0.00,Acu-Link.com,2013-02-17 08:14:00,
2013-02-17 00:29:00,49.5,37.4,29.89,NW,315,5.3,-999.0,63,-99.99,,,0.00,Acu-Link.com,2013-02-17 08:29:00,
2013-02-17 00:45:00,49.1,37.5,29.89,West,270,8.9,-999.0,64,-99.99,,,0.00,Acu-Link.com,2013-02-17 08:45:00,
2013-02-17 01:00:00,48.2,37.4,29.89,NW,315,4.2,-999.0,66,-99.99,,,0.00,Acu-Link.com,2013-02-17 09:00:00,
2013-02-17 01:17:00,48.2,37.8,29.90,SSW,202,6.8,-999.0,67,-99.99,,,0.00,Acu-Link.com,2013-02-17 09:17:00,
2013-02-17 01:32:00,47.1,37.1,29.89,WNW,292,6.3,-999.0,68,-99.99,,,0.00,Acu-Link.com,2013-02-17 09:32:00,
2013-02-17 01:47:00,46.8,37.2,29.90,WNW,292,5.3,-999.0,69,-99.99,,,0.00,Acu-Link.com,2013-02-17 09:47:00,
2013-02-17 02:02:00,46.4,37.2,29.89,South,180,9.4,-999.0,70,-99.99,,,0.00,Acu-Link.com,2013-02-17 10:02:00,
2013-02-17 02:18:00,46.4,37.5,29.88,WNW,292,5.3,-999.0,71,-99.99,,,0.00,Acu-Link.com,2013-02-17 10:18:00,
2013-02-17 02:33:00,45.9,37.4,29.89,West,270,5.8,-999.0,72,-99.99,,,0.00,Acu-Link.com,2013-02-17 10:33:00,
2013-02-17 02:48:00,45.3,37.5,29.88,West,270,5.8,-999.0,74,-99.99,,,0.00,Acu-Link.com,2013-02-17 10:48:00,
2013-02-17 03:03:00,45.1,37.7,29.87,West,270,5.3,-999.0,75,-99.99,,,0.00,Acu-Link.com,2013-02-17 11:03:00,
2013-02-17 03:18:00,45.3,37.9,29.86,West,270,7.8,-999.0,75,-99.99,,,0.00,Acu-Link.com,2013-02-17 11:18:00,
2013-02-17 03:34:00,45.0,37.6,29.86,WNW,292,6.3,-999.0,75,-99.99,,,0.00,Acu-Link.com,2013-02-17 11:34:00,
2013-02-17 03:49:00,44.4,37.6,29.86,West,270,7.8,-999.0,77,-99.99,,,0.00,Acu-Link.com,2013-02-17 11:49:00,
2013-02-17 04:04:00,44.1,37.7,29.86,West,270,11.4,-999.0,78,-99.99,,,0.00,Acu-Link.com,2013-02-17 12:04:00,
2013-02-17 04:19:00,43.3,37.6,29.86,West,270,7.3,-999.0,80,-99.99,,,0.00,Acu-Link.com,2013-02-17 12:19:00,
2013-02-17 04:35:00,43.3,37.6,29.85,West,270,8.9,-999.0,80,-99.99,,,0.00,Acu-Link.com,2013-02-17 12:35:00,
2013-02-17 04:50:00,42.8,37.4,29.86,WNW,292,3.7,-999.0,81,-99.99,,,0.00,Acu-Link.com,2013-02-17 12:50:00,
2013-02-17 05:05:00,43.0,37.9,29.86,NW,315,6.3,-999.0,82,-99.99,,,0.00,Acu-Link.com,2013-02-17 13:05:00,
2013-02-17 05:20:00,43.0,37.6,29.87,West,270,6.3,-999.0,81,-99.99,,,0.00,Acu-Link.com,2013-02-17 13:20:00,
2013-02-17 05:35:00,42.4,37.3,29.87,WSW,247,6.3,-999.0,82,-99.99,,,0.00,Acu-Link.com,2013-02-17 13:35:00,
2013-02-17 05:51:00,42.1,37.3,29.87,West,270,6.8,-999.0,83,-99.99,,,0.00,Acu-Link.com,2013-02-17 13:51:00,
2013-02-17 06:06:00,41.7,37.2,29.87,West,270,7.8,-999.0,84,-99.99,,,0.00,Acu-Link.com,2013-02-17 14:06:00,
2013-02-17 06:21:00,41.0,37.1,29.88,West,270,6.3,-999.0,86,-99.99,,,0.00,Acu-Link.com,2013-02-17 14:21:00,
2013-02-17 06:36:00,40.6,37.0,29.88,West,270,6.8,-999.0,87,-99.99,,,0.00,Acu-Link.com,2013-02-17 14:36:00,
2013-02-17 06:51:00,40.5,36.9,29.88,West,270,6.8,-999.0,87,-99.99,,,0.00,Acu-Link.com,2013-02-17 14:51:00,
2013-02-17 07:07:00,40.5,36.9,29.88,West,270,7.8,-999.0,87,-99.99,,,0.00,Acu-Link.com,2013-02-17 15:07:00,
2013-02-17 07:22:00,40.1,36.5,29.88,WNW,292,4.2,-999.0,87,-99.99,,,0.00,Acu-Link.com,2013-02-17 15:22:00,
2013-02-17 07:37:00,39.9,36.6,29.88,SW,225,5.8,-999.0,88,-99.99,,,0.00,Acu-Link.com,2013-02-17 15:37:00,
2013-02-17 07:53:00,41.2,36.7,29.88,West,270,2.7,-999.0,84,-99.99,,,0.00,Acu-Link.com,2013-02-17 15:53:00,
2013-02-17 08:08:00,44.2,37.1,29.88,West,270,2.2,-999.0,76,-99.99,,,0.00,Acu-Link.com,2013-02-17 16:08:00,
2013-02-17 08:23:00,45.7,37.2,29.88,WSW,247,0.0,-999.0,72,-99.99,,,0.00,Acu-Link.com,2013-02-17 16:23:00,
2013-02-17 08:38:00,45.3,37.9,29.89,WSW,247,2.2,-999.0,75,-99.99,,,0.00,Acu-Link.com,2013-02-17 16:38:00,
2013-02-17 08:54:00,47.7,38.8,29.89,SSW,202,4.2,-999.0,71,-99.99,,,0.00,Acu-Link.com,2013-02-17 16:54:00,
2013-02-17 09:09:00,50.7,39.0,29.90,WSW,247,3.2,-999.0,64,-99.99,,,0.00,Acu-Link.com,2013-02-17 17:09:00,
2013-02-17 09:24:00,51.8,39.2,29.89,South,180,4.2,-999.0,62,-99.99,,,0.00,Acu-Link.com,2013-02-17 17:24:00,
2013-02-17 09:39:00,54.1,40.1,29.89,SW,225,3.2,-999.0,59,-99.99,,,0.00,Acu-Link.com,2013-02-17 17:39:00,
2013-02-17 09:55:00,56.8,40.8,29.89,West,270,4.7,-999.0,55,-99.99,,,0.00,Acu-Link.com,2013-02-17 17:55:00,
2013-02-17 10:10:00,59.5,40.8,29.90,NW,315,2.7,-999.0,50,-99.99,,,0.00,Acu-Link.com,2013-02-17 18:10:00,
2013-02-17 10:25:00,59.4,41.3,29.90,SW,225,3.2,-999.0,51,-99.99,,,0.00,Acu-Link.com,2013-02-17 18:25:00,
2013-02-17 10:40:00,60.8,41.5,29.90,SE,135,5.3,-999.0,49,-99.99,,,0.00,Acu-Link.com,2013-02-17 18:40:00,
2013-02-17 10:55:00,61.5,42.2,29.90,WNW,292,5.3,-999.0,49,-99.99,,,0.00,Acu-Link.com,2013-02-17 18:55:00,
2013-02-17 11:11:00,65.3,42.2,29.90,West,270,2.2,-999.0,43,-99.99,,,0.00,Acu-Link.com,2013-02-17 19:11:00,
2013-02-17 11:26:00,68.9,42.2,29.90,WNW,292,4.7,-999.0,38,-99.99,,,0.00,Acu-Link.com,2013-02-17 19:26:00,
2013-02-17 11:41:00,70.0,41.8,29.89,SW,225,4.2,-999.0,36,-99.99,,,0.00,Acu-Link.com,2013-02-17 19:41:00,
2013-02-17 11:57:00,70.3,42.1,29.89,WNW,292,3.2,-999.0,36,-99.99,,,0.00,Acu-Link.com,2013-02-17 19:57:00,
2013-02-17 12:12:00,70.2,41.3,29.88,West,270,4.7,-999.0,35,-99.99,,,0.00,Acu-Link.com,2013-02-17 20:12:00,
2013-02-17 12:27:00,69.4,42.7,29.87,North,0,3.2,-999.0,38,-99.99,,,0.00,Acu-Link.com,2013-02-17 20:27:00,
2013-02-17 12:42:00,71.2,40.6,29.87,WSW,247,6.8,-999.0,33,-99.99,,,0.00,Acu-Link.com,2013-02-17 20:42:00,
2013-02-17 12:58:00,70.7,40.9,29.86,South,180,6.3,-999.0,34,-99.99,,,0.00,Acu-Link.com,2013-02-17 20:58:00,
2013-02-17 13:13:00,71.2,42.1,29.85,WNW,292,5.8,-999.0,35,-99.99,,,0.00,Acu-Link.com,2013-02-17 21:13:00,
2013-02-17 13:28:00,71.1,42.8,29.85,North,0,3.7,-999.0,36,-99.99,,,0.00,Acu-Link.com,2013-02-17 21:28:00,
2013-02-17 13:44:00,72.1,43.7,29.85,WNW,292,4.7,-999.0,36,-99.99,,,0.00,Acu-Link.com,2013-02-17 21:44:00,
2013-02-17 13:59:00,68.7,42.1,29.84,West,270,7.8,-999.0,38,-99.99,,,0.00,Acu-Link.com,2013-02-17 21:59:00,
2013-02-17 14:14:00,67.1,42.0,29.84,NW,315,9.4,-999.0,40,-99.99,,,0.00,Acu-Link.com,2013-02-17 22:14:00,
2013-02-17 14:30:00,66.0,41.0,29.84,West,270,5.8,-999.0,40,-99.99,,,0.00,Acu-Link.com,2013-02-17 22:30:00,
2013-02-17 14:45:00,66.9,41.8,29.84,WNW,292,4.2,-999.0,40,-99.99,,,0.00,Acu-Link.com,2013-02-17 22:45:00,
2013-02-17 15:00:00,66.9,41.8,29.84,WSW,247,7.8,-999.0,40,-99.99,,,0.00,Acu-Link.com,2013-02-17 23:00:00,
2013-02-17 15:16:00,67.1,42.6,29.84,SW,225,3.7,-999.0,41,-99.99,,,0.00,Acu-Link.com,2013-02-17 23:16:00,
2013-02-17 15:31:00,66.6,42.2,29.84,NW,315,3.7,-999.0,41,-99.99,,,0.00,Acu-Link.com,2013-02-17 23:31:00,
2013-02-17 15:46:00,68.0,41.4,29.83,West,270,7.8,-999.0,38,-99.99,,,0.00,Acu-Link.com,2013-02-17 23:46:00,
2013-02-17 16:01:00,63.7,41.4,29.83,West,270,9.9,-999.0,44,-99.99,,,0.00,Acu-Link.com,2013-02-18 00:01:00,
2013-02-17 16:17:00,63.3,41.0,29.82,SW,225,11.4,-999.0,44,-99.99,,,0.00,Acu-Link.com,2013-02-18 00:17:00,
2013-02-17 16:32:00,60.3,38.9,29.83,West,270,11.9,-999.0,45,-99.99,,,0.00,Acu-Link.com,2013-02-18 00:32:00,
2013-02-17 16:47:00,59.9,39.1,29.83,WSW,247,10.4,-999.0,46,-99.99,,,0.00,Acu-Link.com,2013-02-18 00:47:00,
2013-02-17 17:03:00,58.6,38.4,29.82,WSW,247,10.9,-999.0,47,-99.99,,,0.00,Acu-Link.com,2013-02-18 01:03:00,
2013-02-17 17:18:00,56.8,37.3,29.82,WSW,247,13.5,-999.0,48,-99.99,,,0.00,Acu-Link.com,2013-02-18 01:18:00,
2013-02-17 17:33:00,55.2,38.4,29.82,WSW,247,11.4,-999.0,53,-99.99,,,0.00,Acu-Link.com,2013-02-18 01:33:00,
2013-02-17 17:49:00,53.8,36.6,29.82,WSW,247,11.4,-999.0,52,-99.99,,,0.00,Acu-Link.com,2013-02-18 01:49:00,
2013-02-17 18:04:00,53.1,35.5,29.82,WSW,247,8.9,-999.0,51,-99.99,,,0.00,Acu-Link.com,2013-02-18 02:04:00,
2013-02-17 18:19:00,52.5,34.9,29.82,WSW,247,9.4,-999.0,51,-99.99,,,0.00,Acu-Link.com,2013-02-18 02:19:00,
2013-02-17 18:34:00,52.0,34.4,29.82,WSW,247,9.9,-999.0,51,-99.99,,,0.00,Acu-Link.com,2013-02-18 02:34:00,
2013-02-17 18:50:00,52.0,33.9,29.83,West,270,11.4,-999.0,50,-99.99,,,0.00,Acu-Link.com,2013-02-18 02:50:00,
2013-02-17 19:05:00,51.8,33.8,29.84,West,270,9.9,-999.0,50,-99.99,,,0.00,Acu-Link.com,2013-02-18 03:05:00,
2013-02-17 19:20:00,51.1,33.1,29.83,WSW,247,8.3,-999.0,50,-99.99,,,0.00,Acu-Link.com,2013-02-18 03:20:00,
2013-02-17 19:36:00,51.4,32.9,29.83,WNW,292,8.3,-999.0,49,-99.99,,,0.00,Acu-Link.com,2013-02-18 03:36:00,
2013-02-17 19:51:00,51.6,33.1,29.83,West,270,5.3,-999.0,49,-99.99,,,0.00,Acu-Link.com,2013-02-18 03:51:00,
2013-02-17 20:06:00,51.6,32.6,29.83,West,270,6.8,-999.0,48,-99.99,,,0.00,Acu-Link.com,2013-02-18 04:06:00,
2013-02-17 20:21:00,51.6,32.6,29.84,West,270,5.8,-999.0,48,-99.99,,,0.00,Acu-Link.com,2013-02-18 04:21:00,
2013-02-17 20:37:00,51.6,32.0,29.84,WNW,292,4.2,-999.0,47,-99.99,,,0.00,Acu-Link.com,2013-02-18 04:37:00,
2013-02-17 20:52:00,51.8,32.2,29.84,West,270,4.2,-999.0,47,-99.99,,,0.00,Acu-Link.com,2013-02-18 04:52:00,
2013-02-17 21:07:00,52.0,31.9,29.84,West,270,4.2,-999.0,46,-99.99,,,0.00,Acu-Link.com,2013-02-18 05:07:00,
2013-02-17 21:22:00,51.8,32.2,29.85,West,270,5.3,-999.0,47,-99.99,,,0.00,Acu-Link.com,2013-02-18 05:22:00,
2013-02-17 21:38:00,51.1,32.6,29.85,WNW,292,4.2,-999.0,49,-99.99,,,0.00,Acu-Link.com,2013-02-18 05:38:00,
2013-02-17 21:53:00,49.1,33.2,29.85,West,270,2.7,-999.0,54,-99.99,,,0.00,Acu-Link.com,2013-02-18 05:53:00,
2013-02-17 22:08:00,48.0,35.2,29.85,West,270,4.2,-999.0,61,-99.99,,,0.00,Acu-Link.com,2013-02-18 06:08:00,
2013-02-17 22:23:00,47.1,35.6,29.85,West,270,4.2,-999.0,64,-99.99,,,0.00,Acu-Link.com,2013-02-18 06:23:00,
2013-02-17 22:39:00,46.9,35.8,29.85,WNW,292,3.7,-999.0,65,-99.99,,,0.00,Acu-Link.com,2013-02-18 06:39:00,
2013-02-17 22:54:00,47.1,35.6,29.85,WNW,292,3.7,-999.0,64,-99.99,,,0.00,Acu-Link.com,2013-02-18 06:54:00,
2013-02-17 23:09:00,46.9,35.4,29.85,West,270,4.7,-999.0,64,-99.99,,,0.00,Acu-Link.com,2013-02-18 07:09:00,
2013-02-17 23:24:00,46.8,35.3,29.85,West,270,4.2,-999.0,64,-99.99,,,0.00,Acu-Link.com,2013-02-18 07:24:00,
2013-02-17 23:39:00,46.2,35.1,29.85,West,270,4.7,-999.0,65,-99.99,,,0.00,Acu-Link.com,2013-02-18 07:39:00,
2013-02-17 23:55:00,45.5,35.9,29.85,West,270,3.7,-999.0,69,-99.99,,,0.00,Acu-Link.com,2013-02-18 07:55:00,